{"data":{"norad_id":65766,"epoch":"2026-05-25T04:51:51.375744Z","epoch_age_seconds":51353,"freshness":"FRESH","line1":"1 65766U 25217E   26145.20267796  .00003822  00000+0  53013-3 0  9993","line2":"2 65766  51.9003  57.2450 0000840  93.7042 266.4017 14.79929651 36312","mean_motion":14.79929651,"eccentricity":8.4e-5,"inclination_deg":51.9003,"raan_deg":57.245,"arg_perigee_deg":93.7042,"mean_anomaly_deg":266.4017,"bstar":0.00053013,"rev_number":3631,"period_min":97.301922360092,"perigee_km":628.95755576915,"apogee_km":630.13484654694,"semimajor_km":7007.683201158,"source":"CELESTRAK","updated_at":"2026-05-25T13:38:05.659297Z"}}